period_start,C,m1,H,J0,J1,J2,J3,J4,J5,JA,JB,JC,JD,JJ,JK,JN,#
2016-08-29 00:01:11,0.01,0.18,0.00,17.42,23.63,26.90,14.90,48.11,1014.09,2052.37,3472.91,3122.97,3536.00,599.68,605.66,21.58,0000 0000 0000 0000 000000
2016-08-29 00:06:13,0.00,0.18,0.00,17.42,23.62,26.99,14.89,47.98,1014.16,2052.50,3472.72,3122.96,3535.99,600.05,606.12,21.63,0000 0000 0000 0000 000000
2016-08-29 00:11:15,0.03,0.18,0.00,17.44,23.62,26.96,14.90,48.03,1014.17,2052.60,3472.27,3122.87,3535.98,600.11,606.10,21.68,0000 0000 0000 0000 000000
2016-08-29 00:16:16,0.00,0.18,0.00,17.41,23.62,26.93,14.89,47.98,1014.17,2052.63,3472.06,3122.64,3535.96,600.07,606.07,21.73,0000 0000 0000 0000 000000
2016-08-29 00:21:17,0.02,0.18,0.00,17.40,23.62,27.00,14.91,48.10,1014.17,2052.63,3472.02,3122.31,3535.77,600.29,606.23,21.78,0000 0000 0000 0000 000000
2016-08-29 00:26:19,0.02,0.19,0.00,17.43,23.62,26.94,14.91,47.98,1014.17,2052.69,3472.00,3122.09,3535.47,600.05,606.05,21.83,0000 0000 0000 0000 000000
2016-08-29 00:31:20,0.00,0.19,0.00,17.44,23.62,26.96,14.85,48.05,1014.19,2052.65,3472.00,3122.05,3535.15,600.00,605.99,21.88,0000 0000 0000 0000 000000
2016-08-29 00:36:21,0.01,0.19,0.00,17.39,23.62,26.95,14.91,48.08,1014.20,2052.82,3471.98,3122.04,3535.04,599.89,606.20,21.93,0000 0000 0000 0000 000000
2016-08-29 00:41:22,0.01,0.19,0.00,17.38,23.62,26.92,14.90,47.97,1014.24,2052.88,3471.98,3122.02,3535.03,599.94,606.05,21.99,0000 0000 0000 0000 000000
2016-08-29 00:46:24,-0.00,0.19,0.00,17.37,23.62,26.95,14.93,47.95,1014.21,2052.91,3471.95,3122.03,3535.02,600.18,606.29,22.03,0000 0000 0000 0000 000000
2016-08-29 00:51:25,0.01,0.19,0.00,17.31,23.62,26.98,14.94,47.83,1014.22,2052.87,3471.42,3122.00,3535.00,600.23,606.53,22.08,0000 0000 0000 0000 000000
2016-08-29 00:56:26,0.00,0.19,0.00,17.33,23.62,26.99,14.95,47.90,1014.20,2052.90,3471.14,3122.00,3534.98,599.98,606.17,22.13,0000 0000 0000 0000 000000
2016-08-29 01:01:27,0.00,0.19,0.00,17.30,23.62,26.91,14.94,47.81,1014.23,2052.84,3471.03,3121.99,3534.97,600.14,606.55,22.19,0000 0000 0000 0000 000000
2016-08-29 01:06:28,0.00,0.19,0.00,17.28,23.62,26.91,14.98,47.98,1014.21,2052.86,3471.00,3121.98,3534.90,600.46,606.80,22.24,0000 0000 0000 0000 000000
2016-08-29 01:11:30,-0.01,0.19,0.00,17.31,23.63,26.91,14.85,48.00,1014.22,2052.80,3471.00,3121.96,3534.69,599.77,606.07,22.29,0000 0000 0000 0000 000000
2016-08-29 01:16:31,0.01,0.19,0.00,17.35,23.63,26.90,14.86,48.01,1014.20,2052.73,3471.00,3121.92,3534.31,599.85,606.06,22.34,0000 0000 0000 0000 000000
2016-08-29 01:21:32,0.01,0.19,0.00,17.33,23.63,26.91,14.91,48.08,1014.27,2052.79,3470.99,3121.90,3534.19,600.30,606.51,22.39,0000 0000 0000 0000 000000
2016-08-29 01:26:33,0.01,0.19,0.00,17.33,23.62,26.86,14.86,48.11,1014.37,2052.80,3470.98,3121.78,3534.04,599.87,606.25,22.44,0000 0000 0000 0000 000000
2016-08-29 01:31:35,-0.00,0.19,0.00,17.40,23.62,26.86,14.87,48.01,1014.36,2052.83,3470.96,3121.70,3534.04,599.83,606.02,22.49,0000 0000 0000 0000 000000
2016-08-29 01:36:36,0.01,0.19,0.00,17.40,23.62,26.89,14.87,48.07,1014.32,2052.89,3470.95,3121.67,3534.05,600.00,606.19,22.54,0000 0000 0000 0000 000000
2016-08-29 01:41:37,0.01,0.19,0.00,17.43,23.62,26.86,14.87,48.12,1014.64,2052.92,3470.86,3121.61,3534.03,599.85,606.12,22.59,0000 0000 0000 0000 000000
2016-08-29 01:46:38,-0.00,0.19,0.00,17.46,23.62,26.89,14.94,48.02,1014.66,2052.88,3470.73,3121.41,3534.02,600.12,606.42,22.64,0000 0000 0000 0000 000000
2016-08-29 01:51:39,0.02,0.19,0.00,17.51,23.62,26.89,14.92,47.98,1014.66,2052.86,3470.21,3121.15,3534.00,600.04,606.27,22.69,0000 0000 0000 0000 000000
2016-08-29 01:56:40,0.00,0.19,0.00,17.55,23.62,26.84,14.93,48.06,1014.66,2052.92,3470.10,3121.09,3534.00,600.13,606.11,22.74,0000 0000 0000 0000 000000
2016-08-29 02:01:41,0.00,0.19,0.00,17.55,23.61,26.92,14.91,48.13,1014.66,2052.95,3470.05,3121.12,3534.00,600.30,606.38,22.79,0000 0000 0000 0000 000000
2016-08-29 02:06:43,0.00,0.19,0.00,17.58,23.60,26.90,14.86,48.00,1014.66,2052.95,3470.01,3121.04,3534.00,599.97,605.97,22.84,0000 0000 0000 0000 000000
2016-08-29 02:11:44,-0.00,0.19,0.00,17.64,23.61,26.96,14.90,48.06,1014.66,2052.90,3470.00,3121.02,3534.00,600.22,606.04,22.89,0000 0000 0000 0000 000000
2016-08-29 02:16:45,-0.01,0.19,0.00,17.65,23.62,26.95,14.86,48.15,1014.66,2052.84,3470.01,3121.01,3533.98,600.02,605.80,22.94,0000 0000 0000 0000 000000
2016-08-29 02:21:47,0.01,0.19,0.00,17.71,23.62,26.97,14.92,48.19,1014.66,2052.86,3469.99,3121.00,3533.96,600.15,605.91,22.99,0000 0000 0000 0000 000000
2016-08-29 02:26:48,-0.00,0.19,0.00,17.75,23.62,27.01,14.81,47.96,1014.66,2052.83,3469.98,3121.00,3533.96,600.04,605.61,23.04,0000 0000 0000 0000 000000
2016-08-29 02:31:49,-0.00,0.19,0.00,17.75,23.62,26.99,14.87,48.02,1014.66,2052.85,3469.99,3121.00,3533.93,600.04,605.71,23.09,0000 0000 0000 0000 000000
2016-08-29 02:36:51,-0.00,0.19,0.00,17.77,23.64,27.03,14.88,48.09,1014.66,2052.82,3469.98,3121.00,3533.84,599.87,605.47,23.14,0000 0000 0000 0000 000000
2016-08-29 02:41:52,0.00,0.19,0.00,17.79,23.65,27.03,14.81,47.99,1014.66,2052.80,3469.99,3120.99,3533.76,599.76,605.36,23.19,0000 0000 0000 0000 000000
2016-08-29 02:46:53,0.01,0.19,0.00,17.82,23.65,27.06,14.88,47.96,1014.66,2052.87,3469.96,3120.99,3533.57,599.93,605.49,23.24,0000 0000 0000 0000 000000
2016-08-29 02:51:54,-0.01,0.19,0.00,17.89,23.67,27.06,14.88,47.91,1014.72,2052.76,3469.89,3120.99,3533.23,600.21,605.63,23.29,0000 0000 0000 0000 000000
2016-08-29 02:56:55,0.00,0.19,0.00,17.94,23.67,27.13,14.88,47.81,1014.90,2052.66,3469.74,3120.99,3533.06,599.89,605.27,23.34,0000 0000 0000 0000 000000
2016-08-29 03:01:56,-0.02,0.19,0.00,17.94,23.70,27.14,14.86,47.83,1014.99,2052.37,3469.66,3120.96,3533.01,600.02,605.40,23.39,0000 0000 0000 0000 000000
2016-08-29 03:06:57,-0.01,0.19,0.00,17.99,23.71,27.18,14.77,47.91,1015.00,2052.16,3469.19,3120.82,3533.00,599.65,605.02,23.44,0000 0000 0000 0000 000000
2016-08-29 03:11:59,0.00,0.19,0.00,18.01,23.72,27.19,14.86,47.84,1015.11,2052.05,3469.03,3120.30,3532.99,600.07,605.47,23.49,0000 0000 0000 0000 000000
2016-08-29 03:17:00,0.01,0.19,0.00,18.04,23.75,27.25,14.84,47.96,1015.12,2052.03,3468.99,3120.05,3532.96,599.86,605.17,23.54,0000 0000 0000 0000 000000
2016-08-29 03:22:01,0.00,0.19,0.00,18.08,23.76,27.25,14.86,48.02,1015.15,2052.03,3468.99,3120.02,3532.95,600.01,605.28,23.59,0000 0000 0000 0000 000000
2016-08-29 03:27:02,0.00,0.19,0.00,18.11,23.78,27.28,14.85,47.86,1015.15,2052.01,3468.98,3120.00,3532.51,599.89,605.09,23.64,0000 0000 0000 0000 000000
2016-08-29 03:32:04,0.00,0.19,0.00,18.13,23.80,27.33,14.81,47.80,1015.15,2052.00,3468.94,3120.00,3532.12,599.77,604.84,23.69,0000 0000 0000 0000 000000
2016-08-29 03:37:05,0.00,0.19,0.00,18.20,23.82,27.36,14.91,47.84,1015.15,2052.00,3468.78,3119.99,3532.01,600.13,605.14,23.74,0000 0000 0000 0000 000000
2016-08-29 03:42:06,0.01,0.19,0.00,18.20,23.85,27.39,14.81,47.82,1015.15,2052.00,3468.17,3119.93,3532.00,599.92,604.83,23.79,0000 0000 0000 0000 000000
2016-08-29 03:47:08,0.01,0.19,0.00,18.21,23.87,27.41,14.92,47.92,1015.15,2051.99,3468.02,3119.53,3531.97,600.01,604.90,23.84,0000 0000 0000 0000 000000
2016-08-29 03:52:09,0.01,0.19,0.00,18.27,23.90,27.43,14.79,47.89,1015.15,2051.98,3468.00,3119.05,3531.77,599.73,604.56,23.89,0000 0000 0000 0000 000000
2016-08-29 03:57:10,0.00,0.19,0.00,18.30,23.92,27.51,14.81,47.83,1015.15,2051.96,3467.99,3119.00,3531.23,599.78,604.57,23.94,0000 0000 0000 0000 000000
2016-08-29 04:02:12,-0.02,0.19,0.00,18.35,23.95,27.51,14.90,48.08,1015.15,2051.86,3467.96,3119.00,3531.03,600.20,604.72,23.99,0000 0000 0000 0000 000000
2016-08-29 04:07:13,-0.02,0.19,0.00,18.40,23.97,27.55,14.90,47.87,1015.15,2051.53,3467.57,3118.98,3531.00,599.95,604.47,24.04,0000 0000 0000 0000 000000
2016-08-29 04:12:14,-0.02,0.19,0.00,18.46,24.00,27.56,14.84,47.82,1015.15,2051.16,3467.06,3118.88,3530.98,599.88,604.35,24.09,0000 0000 0000 0000 000000
2016-08-29 04:17:16,0.02,0.19,0.00,18.46,24.03,27.61,14.90,47.89,1015.16,2051.04,3467.00,3118.37,3530.81,600.30,604.65,24.14,0000 0000 0000 0000 000000
2016-08-29 04:22:17,0.01,0.19,0.00,18.49,24.05,27.63,14.85,47.85,1015.16,2051.01,3467.00,3118.04,3530.16,600.17,604.53,24.19,0000 0000 0000 0000 000000
2016-08-29 04:27:18,0.00,0.19,0.00,18.52,24.08,27.67,14.87,47.88,1015.26,2051.00,3466.91,3118.00,3530.00,600.18,604.51,24.24,0000 0000 0000 0000 000000
2016-08-29 04:32:20,0.00,0.19,0.00,18.54,24.11,27.69,14.84,47.87,1015.50,2050.99,3466.47,3117.99,3529.99,599.69,604.13,24.29,0000 0000 0000 0000 000000
2016-08-29 04:37:21,0.00,0.19,0.00,18.57,24.13,27.73,14.82,47.99,1015.58,2050.97,3466.06,3117.92,3529.86,600.05,604.53,24.34,0000 0000 0000 0000 000000
2016-08-29 04:42:22,0.02,0.19,0.00,18.58,24.16,27.75,14.85,47.91,1015.62,2050.95,3466.00,3117.30,3529.13,600.10,604.52,24.39,0000 0000 0000 0000 000000
2016-08-29 04:47:23,-0.02,0.19,0.00,18.62,24.19,27.77,14.87,47.92,1015.61,2050.65,3465.97,3117.01,3529.01,600.06,604.40,24.44,0000 0000 0000 0000 000000
2016-08-29 04:52:24,-0.02,0.19,0.00,18.67,24.22,27.82,14.79,47.72,1015.63,2050.26,3465.54,3117.00,3528.99,600.09,604.24,24.49,0000 0000 0000 0000 000000
2016-08-29 04:57:26,0.00,0.19,0.00,18.70,24.25,27.84,14.83,47.86,1015.64,2050.06,3465.04,3116.98,3528.82,600.22,604.52,24.54,0000 0000 0000 0000 000000
2016-08-29 05:02:27,0.02,0.19,0.00,18.75,24.27,27.87,14.78,47.84,1015.64,2050.02,3465.00,3116.65,3528.15,599.91,604.01,24.59,0000 0000 0000 0000 000000
2016-08-29 05:07:28,0.01,0.19,0.00,18.77,24.30,27.91,14.76,47.80,1015.65,2050.01,3464.93,3116.07,3528.00,599.65,603.74,24.64,0000 0000 0000 0000 000000
2016-08-29 05:12:30,0.00,0.19,0.00,18.78,24.33,27.96,14.91,47.88,1015.65,2050.00,3464.49,3116.00,3527.99,600.06,604.08,24.69,0000 0000 0000 0000 000000
2016-08-29 05:17:31,0.00,0.19,0.00,18.84,24.36,27.95,14.81,47.78,1015.68,2049.99,3464.06,3116.00,3527.82,599.89,603.93,24.74,0000 0000 0000 0000 000000
2016-08-29 05:22:33,0.01,0.19,0.00,18.87,24.39,28.00,14.83,47.83,1015.82,2049.97,3464.00,3115.86,3527.11,600.07,604.12,24.79,0000 0000 0000 0000 000000
2016-08-29 05:27:34,-0.01,0.19,0.00,18.91,24.41,28.02,14.79,47.81,1016.09,2049.77,3463.83,3115.20,3526.99,600.03,603.87,24.84,0000 0000 0000 0000 000000
2016-08-29 05:32:35,-0.03,0.19,0.00,18.94,24.45,28.05,14.82,47.83,1016.13,2049.16,3463.20,3115.00,3526.94,600.04,604.08,24.89,0000 0000 0000 0000 000000
2016-08-29 05:37:37,0.01,0.19,0.00,18.98,24.47,28.10,14.84,47.90,1016.13,2049.06,3463.02,3115.00,3526.39,600.10,604.06,24.94,0000 0000 0000 0000 000000
2016-08-29 05:42:38,0.00,0.19,0.00,18.99,24.51,28.14,14.77,47.86,1016.14,2049.02,3463.00,3114.99,3526.04,600.05,603.96,24.99,0000 0000 0000 0000 000000
2016-08-29 05:47:40,0.01,0.19,0.00,19.01,24.53,28.16,14.76,47.77,1016.18,2049.00,3462.97,3114.61,3526.00,599.98,603.79,25.04,0000 0000 0000 0000 000000
2016-08-29 05:52:41,0.01,0.19,0.00,19.05,24.56,28.20,14.83,47.83,1016.25,2049.00,3462.52,3114.05,3525.95,600.06,603.94,25.09,0000 0000 0000 0000 000000
2016-08-29 05:57:43,0.01,0.19,0.00,19.08,24.59,28.22,14.85,47.80,1016.33,2048.99,3462.04,3114.00,3525.38,599.90,603.86,25.14,0000 0000 0000 0000 000000
2016-08-29 06:02:44,0.00,0.19,0.00,19.11,24.61,28.22,14.79,47.88,1016.48,2048.97,3462.00,3113.99,3525.03,600.03,604.05,25.19,0000 0000 0000 0000 000000
2016-08-29 06:07:45,-0.00,0.19,0.00,19.13,24.64,28.23,14.82,47.80,1016.54,2048.94,3461.98,3113.93,3525.00,599.88,603.80,25.24,0000 0000 0000 0000 000000
2016-08-29 06:12:47,0.01,0.19,0.00,19.17,24.67,28.27,14.79,47.82,1016.56,2048.77,3461.52,3113.43,3524.97,599.94,603.74,25.29,0000 0000 0000 0000 000000
2016-08-29 06:17:48,-0.03,0.19,0.00,19.20,24.70,28.34,14.86,47.84,1016.60,2048.30,3461.03,3113.03,3524.51,600.30,604.09,25.34,0000 0000 0000 0000 000000
2016-08-29 06:22:49,-0.01,0.19,0.00,19.19,24.72,28.35,14.79,47.88,1016.62,2048.04,3460.99,3113.00,3524.02,599.98,603.78,25.39,0000 0000 0000 0000 000000
2016-08-29 06:27:50,0.00,0.19,0.00,19.25,24.75,28.36,14.85,47.88,1016.62,2048.02,3460.82,3112.97,3523.99,599.98,603.65,25.44,0000 0000 0000 0000 000000
2016-08-29 06:32:51,0.03,0.19,0.00,19.27,24.78,28.40,14.93,47.82,1016.62,2048.00,3460.12,3112.52,3523.75,600.16,603.80,25.49,0000 0000 0000 0000 000000
2016-08-29 06:37:52,0.01,0.20,0.00,19.30,24.81,28.41,14.83,47.75,1016.62,2047.99,3460.00,3112.03,3523.09,600.07,603.57,25.54,0000 0000 0000 0000 000000
2016-08-29 06:42:53,0.00,0.20,0.00,19.30,24.84,28.47,14.90,47.72,1016.62,2047.98,3459.96,3112.00,3523.01,600.24,603.72,25.59,0000 0000 0000 0000 000000
2016-08-29 06:47:55,-0.00,0.20,0.00,19.32,24.86,28.48,14.86,47.82,1016.65,2047.90,3459.43,3111.98,3522.98,599.99,603.52,25.64,0000 0000 0000 0000 000000
2016-08-29 06:52:56,-0.01,0.20,0.00,19.37,24.89,28.52,14.80,47.74,1016.74,2047.74,3459.07,3111.89,3522.79,599.88,603.39,25.69,0000 0000 0000 0000 000000
2016-08-29 06:57:57,-0.01,0.20,0.00,19.36,24.92,28.55,14.84,47.79,1016.76,2047.44,3459.01,3111.40,3522.16,599.93,603.54,25.74,0000 0000 0000 0000 000000
2016-08-29 07:02:59,-0.01,0.20,0.00,19.42,24.95,28.56,14.82,47.82,1017.00,2047.14,3458.98,3111.03,3522.00,600.20,603.72,25.79,0000 0000 0000 0000 000000
2016-08-29 07:08:00,0.00,0.19,0.00,19.48,24.97,28.59,14.81,47.83,1017.10,2047.03,3458.65,3111.00,3521.98,599.70,603.24,25.84,0000 0000 0000 0000 000000
2016-08-29 07:13:01,0.01,0.20,0.00,19.50,25.00,28.61,14.82,47.91,1017.10,2047.00,3458.06,3110.90,3521.40,600.05,603.52,25.89,0000 0000 0000 0000 000000
2016-08-29 07:18:02,0.02,0.20,0.00,19.58,25.03,28.65,14.80,47.77,1017.10,2047.00,3457.99,3110.35,3521.03,600.00,603.33,25.94,0000 0000 0000 0000 000000
2016-08-29 07:23:04,0.00,0.20,0.00,19.68,25.06,28.71,14.75,47.82,1017.10,2047.00,3457.88,3110.02,3520.99,599.68,602.76,25.99,0000 0000 0000 0000 000000
2016-08-29 07:28:05,0.01,0.20,0.00,19.72,25.10,28.74,14.82,47.88,1017.10,2047.00,3457.18,3109.99,3520.71,599.99,603.06,26.04,0000 0000 0000 0000 000000
2016-08-29 07:33:07,0.01,0.20,0.00,19.74,25.13,28.72,14.83,47.74,1017.11,2046.99,3457.00,3109.78,3520.05,600.01,602.98,26.09,0000 0000 0000 0000 000000
2016-08-29 07:38:08,0.02,0.20,0.00,19.74,25.16,28.76,14.80,47.77,1017.12,2046.96,3456.82,3109.10,3519.99,599.93,602.90,26.14,0000 0000 0000 0000 000000
2016-08-29 07:43:09,0.00,0.20,0.00,19.78,25.20,28.79,14.74,47.82,1017.13,2046.92,3456.21,3109.00,3519.86,599.97,602.82,26.19,0000 0000 0000 0000 000000
2016-08-29 07:48:11,-0.04,0.20,0.00,19.80,25.23,28.87,14.75,47.76,1017.15,2046.48,3456.00,3108.97,3519.21,599.96,602.77,26.24,0000 0000 0000 0000 000000
2016-08-29 07:53:12,-0.00,0.20,0.00,19.79,25.26,28.85,14.74,47.75,1017.26,2046.06,3455.96,3108.46,3519.00,599.93,602.91,26.29,0000 0000 0000 0000 000000
2016-08-29 07:58:13,0.01,0.20,0.00,19.85,25.29,28.91,14.81,47.76,1017.44,2046.03,3455.49,3108.04,3518.96,600.00,603.03,26.34,0000 0000 0000 0000 000000
2016-08-29 08:03:15,0.01,0.20,0.00,19.86,25.32,28.94,14.74,47.74,1017.58,2046.00,3455.01,3108.00,3518.26,599.91,602.83,26.39,0000 0000 0000 0000 000000
2016-08-29 08:08:16,0.01,0.20,0.00,19.84,25.36,28.94,14.78,47.83,1017.60,2045.99,3454.91,3107.74,3518.01,600.17,603.23,26.45,0000 0000 0000 0000 000000
2016-08-29 08:13:18,0.02,0.20,0.00,19.85,25.39,28.99,14.73,47.86,1017.69,2045.98,3454.17,3107.11,3517.90,599.84,602.94,26.50,0000 0000 0000 0000 000000
2016-08-29 08:18:19,0.01,0.20,0.00,19.90,25.42,29.03,14.77,47.73,1017.89,2045.97,3454.01,3107.01,3517.39,599.94,603.05,26.55,0000 0000 0000 0000 000000
2016-08-29 08:23:20,-0.04,0.20,0.00,19.92,25.45,29.03,14.75,47.77,1018.03,2045.61,3453.94,3106.97,3517.01,599.61,602.89,26.60,0000 0000 0000 0000 000000
2016-08-29 08:28:21,-0.00,0.20,0.00,19.96,25.48,29.04,14.76,47.80,1018.07,2045.14,3453.29,3106.46,3516.95,599.55,602.62,26.65,0000 0000 0000 0000 000000
2016-08-29 08:33:23,0.01,0.20,0.00,19.97,25.51,29.05,14.85,47.86,1018.08,2045.03,3453.01,3106.06,3516.31,600.18,603.24,26.70,0000 0000 0000 0000 000000
2016-08-29 08:38:24,0.00,0.20,0.00,19.98,25.54,29.11,14.80,47.87,1018.09,2045.01,3452.99,3106.01,3516.03,600.01,603.04,26.75,0000 0000 0000 0000 000000
2016-08-29 08:43:25,0.01,0.20,0.00,20.02,25.57,29.14,14.80,47.86,1018.12,2045.00,3452.50,3105.97,3515.98,599.91,602.90,26.80,0000 0000 0000 0000 000000
2016-08-29 08:48:27,0.04,0.20,0.00,20.03,25.61,29.14,14.89,47.87,1018.27,2044.99,3452.02,3105.40,3515.45,600.00,603.04,26.85,0000 0000 0000 0000 000000
2016-08-29 08:53:28,0.00,0.20,0.00,20.04,25.63,29.18,14.81,47.84,1018.44,2044.97,3451.99,3105.02,3515.02,599.86,603.00,26.90,0000 0000 0000 0000 000000
2016-08-29 08:58:30,0.00,0.20,0.00,20.06,25.66,29.21,14.75,47.84,1018.54,2044.91,3451.62,3105.00,3514.98,599.82,602.93,26.95,0000 0000 0000 0000 000000
2016-08-29 09:03:31,-0.02,0.20,0.00,20.03,25.69,29.22,14.84,47.83,1018.57,2044.56,3451.02,3104.82,3514.50,599.79,602.98,27.00,0000 0000 0000 0000 000000
2016-08-29 09:08:33,-0.00,0.20,0.00,20.06,25.71,29.24,14.82,47.77,1018.57,2044.19,3450.96,3104.20,3514.02,599.94,603.12,27.05,0000 0000 0000 0000 000000
2016-08-29 09:13:34,0.00,0.20,0.00,20.07,25.74,29.29,14.84,47.78,1018.57,2044.05,3450.47,3104.01,3513.99,599.96,603.05,27.10,0000 0000 0000 0000 000000
2016-08-29 09:18:35,0.01,0.20,0.00,20.10,25.76,29.30,14.81,47.71,1018.59,2044.00,3450.01,3103.96,3513.58,599.89,603.00,27.15,0000 0000 0000 0000 000000
2016-08-29 09:23:37,0.02,0.20,0.00,20.15,25.79,29.27,14.75,47.69,1018.61,2044.00,3449.92,3103.47,3513.03,600.06,603.05,27.20,0000 0000 0000 0000 000000
2016-08-29 09:28:38,0.02,0.21,0.00,20.22,25.81,29.32,14.80,47.67,1018.83,2044.00,3449.24,3103.03,3512.98,600.28,603.21,27.25,0000 0000 0000 0000 000000
2016-08-29 09:33:40,0.00,0.21,0.00,20.22,25.84,29.35,14.79,47.62,1019.03,2043.99,3449.00,3103.00,3512.83,599.91,603.05,27.30,0000 0000 0000 0000 000000
2016-08-29 09:38:41,0.01,0.21,0.00,20.25,25.86,29.39,14.80,47.67,1019.06,2043.98,3448.93,3102.95,3512.09,600.15,603.14,27.35,0000 0000 0000 0000 000000
2016-08-29 09:43:43,0.01,0.21,0.00,20.29,25.88,29.41,14.75,47.79,1019.06,2043.87,3448.39,3102.42,3512.00,599.72,602.74,27.40,0000 0000 0000 0000 000000
2016-08-29 09:48:44,-0.01,0.21,0.00,20.30,25.90,29.43,14.82,47.80,1019.06,2043.62,3448.00,3102.01,3511.87,600.35,603.23,27.45,0000 0000 0000 0000 000000
2016-08-29 09:53:45,-0.03,0.21,0.00,20.31,25.92,29.43,14.82,47.74,1019.06,2043.17,3447.96,3102.00,3511.17,600.05,603.04,27.50,0000 0000 0000 0000 000000
2016-08-29 09:58:46,0.00,0.21,0.00,20.34,25.95,29.48,14.79,47.77,1019.07,2043.04,3447.59,3101.96,3511.01,600.09,603.03,27.55,0000 0000 0000 0000 000000
2016-08-29 10:03:47,0.02,0.21,0.00,20.37,25.97,29.52,14.72,47.68,1019.14,2043.01,3447.04,3101.44,3510.97,599.57,602.41,27.60,0000 0000 0000 0000 000000
2016-08-29 10:08:48,0.01,0.21,0.00,20.40,26.00,29.54,14.84,47.72,1019.28,2043.00,3446.99,3101.04,3510.73,600.43,603.34,27.65,0000 0000 0000 0000 000000
2016-08-29 10:13:50,0.01,0.21,0.00,20.44,26.02,29.55,14.83,47.70,1019.37,2043.00,3446.79,3101.00,3510.07,600.07,602.91,27.70,0000 0000 0000 0000 000000
2016-08-29 10:18:51,0.01,0.21,0.00,20.42,26.04,29.59,14.83,47.72,1019.54,2042.99,3446.06,3100.95,3510.00,600.00,602.97,27.75,0000 0000 0000 0000 000000
2016-08-29 10:23:52,0.01,0.21,0.00,20.46,26.06,29.60,14.77,47.71,1019.55,2042.98,3446.00,3100.64,3509.92,600.12,603.04,27.80,0000 0000 0000 0000 000000
2016-08-29 10:28:53,0.02,0.21,0.00,20.46,26.08,29.62,14.79,47.82,1019.55,2042.99,3445.97,3100.09,3509.39,599.87,602.84,27.85,0000 0000 0000 0000 000000
2016-08-29 10:33:55,0.00,0.21,0.00,20.46,26.10,29.64,14.85,47.63,1019.56,2042.90,3445.37,3100.00,3509.02,600.20,603.10,27.90,0000 0000 0000 0000 000000
2016-08-29 10:38:57,-0.01,0.21,0.00,20.44,26.12,29.63,14.83,47.73,1019.57,2042.77,3445.02,3100.00,3509.00,600.09,603.02,27.95,0000 0000 0000 0000 000000
2016-08-29 10:43:58,-0.04,0.21,0.00,20.44,26.14,29.64,14.75,47.74,1019.59,2042.33,3444.98,3099.93,3508.86,599.58,602.62,28.00,0000 0000 0000 0000 000000
2016-08-29 10:48:59,0.02,0.21,0.00,20.49,26.16,29.66,14.80,47.73,1019.76,2042.08,3444.70,3099.32,3508.16,600.16,603.19,28.05,0000 0000 0000 0000 000000
2016-08-29 10:54:00,0.01,0.21,0.00,20.51,26.17,29.71,14.82,47.70,1019.99,2042.05,3444.13,3099.05,3508.01,599.86,603.03,28.10,0000 0000 0000 0000 000000
2016-08-29 10:59:02,0.00,0.21,0.00,20.50,26.20,29.70,14.87,47.69,1020.02,2042.02,3444.00,3099.00,3508.00,600.40,603.51,28.15,0000 0000 0000 0000 000000
2016-08-29 11:04:03,0.00,0.21,0.00,20.53,26.21,29.73,14.79,47.73,1020.03,2042.01,3443.98,3099.00,3507.90,600.13,603.19,28.20,0000 0000 0000 0000 000000
2016-08-29 11:09:04,0.01,0.21,0.00,20.56,26.22,29.77,14.79,47.69,1020.04,2042.00,3443.72,3098.96,3507.47,600.12,603.10,28.25,0000 0000 0000 0000 000000
2016-08-29 11:14:06,0.02,0.21,0.00,20.56,26.25,29.74,14.83,47.70,1020.05,2042.00,3443.08,3098.43,3507.03,600.21,603.18,28.30,0000 0000 0000 0000 000000
2016-08-29 11:19:07,0.00,0.21,0.00,20.59,26.26,29.77,14.76,47.72,1020.06,2042.00,3443.00,3098.08,3507.00,600.22,603.04,28.35,0000 0000 0000 0000 000000
2016-08-29 11:24:08,0.00,0.21,0.00,20.62,26.27,29.80,14.81,47.73,1020.13,2042.00,3442.99,3098.01,3506.98,600.07,602.90,28.40,0000 0000 0000 0000 000000
2016-08-29 11:29:09,0.01,0.21,0.00,20.66,26.30,29.83,14.87,47.75,1020.33,2041.99,3442.80,3098.00,3506.71,600.05,603.01,28.45,0000 0000 0000 0000 000000
2016-08-29 11:34:11,0.01,0.21,0.00,20.66,26.31,29.83,14.88,47.77,1020.49,2041.98,3442.17,3097.97,3506.15,599.93,603.00,28.50,0000 0000 0000 0000 000000
2016-08-29 11:39:12,0.01,0.21,0.00,20.70,26.32,29.83,14.76,47.66,1020.51,2041.96,3442.00,3097.71,3506.01,599.70,602.75,28.55,0000 0000 0000 0000 000000
2016-08-29 11:44:13,0.01,0.21,0.00,20.69,26.35,29.86,14.81,47.73,1020.52,2041.91,3441.97,3097.10,3505.97,600.08,603.21,28.60,0000 0000 0000 0000 000000
2016-08-29 11:49:14,-0.01,0.21,0.00,20.69,26.36,29.85,14.80,47.67,1020.52,2041.68,3441.45,3097.00,3505.54,599.86,602.87,28.65,0000 0000 0000 0000 000000
2016-08-29 11:54:16,-0.02,0.21,0.00,20.70,26.37,29.90,14.83,47.61,1020.53,2041.37,3441.03,3097.00,3505.04,600.10,603.05,28.70,0000 0000 0000 0000 000000
2016-08-29 11:59:17,-0.02,0.21,0.00,20.73,26.39,29.91,14.85,47.63,1020.56,2041.11,3441.00,3096.89,3505.00,600.39,603.35,28.75,0000 0000 0000 0000 000000
2016-08-29 12:04:18,0.01,0.21,0.00,20.73,26.40,29.93,14.76,47.58,1020.64,2041.05,3440.97,3096.44,3504.98,599.52,602.48,28.80,0000 0000 0000 0000 000000
2016-08-29 12:09:19,0.03,0.21,0.00,20.74,26.42,29.93,14.85,47.60,1020.80,2041.03,3440.41,3096.05,3504.55,600.08,603.21,28.85,0000 0000 0000 0000 000000
2016-08-29 12:14:21,0.00,0.21,0.00,20.74,26.44,29.92,14.78,47.61,1020.99,2041.01,3440.02,3096.01,3504.04,599.92,603.21,28.90,0000 0000 0000 0000 000000
2016-08-29 12:19:22,0.00,0.21,0.00,20.77,26.45,29.97,14.80,47.58,1020.99,2041.01,3440.00,3096.00,3504.00,600.21,603.27,28.95,0000 0000 0000 0000 000000
2016-08-29 12:24:24,0.00,0.21,0.00,20.78,26.47,29.99,14.71,47.58,1020.99,2041.00,3440.00,3095.98,3504.00,599.84,602.86,29.00,0000 0000 0000 0000 000000
2016-08-29 12:29:25,0.01,0.21,0.00,20.78,26.48,30.01,14.88,47.55,1021.01,2041.00,3439.81,3095.80,3503.96,600.28,603.28,29.05,0000 0000 0000 0000 000000
2016-08-29 12:34:26,0.03,0.22,0.00,20.83,26.50,30.02,14.80,47.60,1021.01,2041.00,3439.19,3095.20,3503.53,599.74,602.71,29.10,0000 0000 0000 0000 000000
2016-08-29 12:39:28,0.00,0.22,0.00,20.83,26.51,30.02,14.81,47.64,1021.01,2040.99,3439.01,3095.00,3503.02,599.98,603.04,29.15,0000 0000 0000 0000 000000
2016-08-29 12:44:29,0.00,0.22,0.00,20.83,26.52,30.03,14.77,47.58,1021.02,2040.99,3438.93,3095.00,3502.99,599.82,602.91,29.20,0000 0000 0000 0000 000000
2016-08-29 12:49:30,0.01,0.22,0.00,20.82,26.55,30.08,14.82,47.63,1021.03,2040.98,3438.51,3094.97,3502.91,600.15,603.07,29.25,0000 0000 0000 0000 000000
2016-08-29 12:54:31,0.02,0.22,0.00,20.86,26.56,30.07,14.80,47.61,1021.04,2040.90,3438.04,3094.54,3502.28,599.90,602.90,29.30,0000 0000 0000 0000 000000